Find Kosmos-2545

NORAD ID: 45358 Int'l Des: 2020-018 Owner: VVKOV/IACG Country: RU Constellation: GLONASS operational
MEOCIRCULAR

当前视图

正在加载3D地球...

About Kosmos-2545

Kosmos-2545 (NORAD 45358) is a GLONASS constellation satellite launched Mar 16, 2020 by VVKOV/IACG of RU. It operates in MEO, CIRCULAR orbit with a mass of 1450.00 kg.

关于 Kosmos-2545

正在加载描述...

即将过境

Passes for default location (London). Set your location on the main map for personalized predictions.

高度历史

Loading altitude history...

两行轨道根数

1 45358U 20018A 26167.28584186 -.00000055 00000-0 00000-0 0 9991
2 45358 64.3556 312.4510 0008397 230.0424 129.8687 2.13102431 48644
Epoch: Jun 16, 2026 • Age: 77 hours

当前状态

高度 19141.4 km
速度 3.95 km/s
星下点 -50.96°S, 169.16°W
发射日期 Mar 16, 2020
运行时间 6.2 years
类型 other

技术详情

分类 Payload
质量 1450.00 kg
干质量 1200.00 kg
总质量 1450.00 kg
长度 4.00 m
直径 1.50 m
跨度 7.80 m
形状 Cyl + Ant + 2 Pan
制造商 RESH
平台类型 Uragan
阶段状态 In Orbit
所有者/国家 VVKOV/IACG/RU

Most Searched